Location: Roland
(31.1349°N, 85.4372°W)
Time: 23:58:20
(UTC+00:00)

S-56A Canister/Altair - Pass Details

Date: 22 April 2021
Orbit: 632 x 2501 km, 38.9° (Epoch: 11 May)

Event Time Altitude Azimuth Distance (km) Brightness Sun altitude
Rises 04:42:57 0° 257° (WSW) 4,999 11.8 -44.5°
Reaches altitude 10° 04:46:49 10° 261° (W) 3,702 11.0 -44.7°
Enters shadow 04:47:34 12° 262° (W) 3,447 10.9 -44.8°
